Radiation Dose at Monitoring Post of Fukushima Daini Nuclear Power Station
Date,Time,MP-1(microSv/h),MP-2(microSv/h),MP-3(microSv/h),MP-4(microSv/h),MP-5(microSv/h),MP-6(microSv/h),MP-7(microSv/h),Wind Direction,Wind Velocity(m/s),Rain
2023/07/04,00:00,0.148,0.137,0.214,0.204,0.212,0.117,0.077,north,3.7,No
2023/07/04,00:10,0.148,0.136,0.213,0.202,0.208,0.117,0.076,north,4.1,No
2023/07/04,00:20,0.146,0.135,0.213,0.205,0.213,0.117,0.076,north,4.2,No
2023/07/04,00:30,0.148,0.137,0.213,0.203,0.212,0.117,0.076,north-northwest,4.4,No
2023/07/04,00:40,0.146,0.135,0.212,0.203,0.209,0.117,0.076,north-northwest,4.2,No
2023/07/04,00:50,0.145,0.136,0.213,0.203,0.212,0.117,0.076,north,4.0,No
2023/07/04,01:00,0.148,0.136,0.211,0.202,0.211,0.117,0.077,north-northwest,4.2,No
2023/07/04,01:10,0.146,0.136,0.212,0.204,0.210,0.116,0.076,north-northwest,4.9,No
2023/07/04,01:20,0.146,0.137,0.213,0.204,0.212,0.117,0.075,north-northwest,4.7,No
2023/07/04,01:30,0.147,0.136,0.212,0.201,0.210,0.117,0.077,north-northwest,4.7,No
2023/07/04,01:40,0.146,0.135,0.213,0.205,0.211,0.116,0.077,north-northwest,5.0,No
2023/07/04,01:50,0.145,0.136,0.211,0.202,0.212,0.117,0.076,north-northwest,5.6,No
2023/07/04,02:00,0.147,0.135,0.212,0.201,0.209,0.117,0.075,north-northwest,5.8,No
2023/07/04,02:10,0.147,0.135,0.213,0.203,0.211,0.116,0.077,north-northwest,5.7,No
2023/07/04,02:20,0.145,0.135,0.210,0.201,0.212,0.116,0.075,north-northwest,6.2,No
2023/07/04,02:30,0.146,0.133,0.213,0.202,0.209,0.115,0.075,north-northwest,5.8,No
2023/07/04,02:40,0.146,0.136,0.212,0.203,0.212,0.116,0.077,north-northwest,5.1,No
2023/07/04,02:50,0.145,0.134,0.212,0.202,0.210,0.116,0.075,northwest,5.8,No
2023/07/04,03:00,0.148,0.135,0.212,0.204,0.210,0.115,0.075,north-northwest,5.5,No
2023/07/04,03:10,0.146,0.135,0.212,0.202,0.211,0.116,0.075,north-northwest,5.7,No
2023/07/04,03:20,0.146,0.134,0.213,0.202,0.208,0.116,0.076,north-northwest,5.7,No
2023/07/04,03:30,0.147,0.136,0.211,0.202,0.212,0.115,0.075,north-northwest,6.1,No
2023/07/04,03:40,0.146,0.135,0.212,0.202,0.211,0.116,0.075,north-northwest,5.7,No
2023/07/04,03:50,0.147,0.135,0.212,0.204,0.209,0.116,0.075,north-northwest,5.7,No
2023/07/04,04:00,0.146,0.136,0.210,0.201,0.211,0.116,0.075,north-northwest,6.4,No
2023/07/04,04:10,0.144,0.134,0.213,0.203,0.209,0.116,0.075,north-northwest,6.4,No
2023/07/04,04:20,0.146,0.135,0.210,0.203,0.212,0.115,0.075,north-northwest,6.3,No
2023/07/04,04:30,0.145,0.135,0.213,0.202,0.210,0.115,0.075,north-northwest,6.4,No
2023/07/04,04:40,0.146,0.136,0.212,0.203,0.211,0.116,0.075,north-northwest,6.8,No
2023/07/04,04:50,0.147,0.135,0.212,0.202,0.211,0.116,0.075,north-northwest,7.0,No
2023/07/04,05:00,0.145,0.135,0.211,0.204,0.210,0.116,0.075,north-northwest,7.3,No
2023/07/04,05:10,0.147,0.136,0.213,0.201,0.210,0.115,0.075,north-northwest,7.7,No
2023/07/04,05:20,0.146,0.133,0.213,0.202,0.210,0.115,0.075,north-northwest,7.6,No
2023/07/04,05:30,0.145,0.136,0.211,0.202,0.209,0.115,0.075,north-northwest,6.8,No
2023/07/04,05:40,0.147,0.134,0.212,0.202,0.212,0.115,0.074,north-northwest,6.1,No
2023/07/04,05:50,0.145,0.133,0.210,0.203,0.209,0.115,0.074,north-northwest,5.9,No
2023/07/04,06:00,0.147,0.135,0.212,0.201,0.207,0.115,0.075,north-northwest,5.6,No
2023/07/04,06:10,0.146,0.134,0.210,0.202,0.211,0.116,0.074,north-northwest,6.4,No
2023/07/04,06:20,0.145,0.134,0.212,0.202,0.209,0.116,0.074,north-northwest,6.5,No
2023/07/04,06:30,0.147,0.134,0.211,0.201,0.207,0.116,0.074,north-northwest,6.7,No
2023/07/04,06:40,0.146,0.134,0.208,0.203,0.210,0.117,0.074,north-northwest,6.4,No
2023/07/04,06:50,0.145,0.134,0.212,0.202,0.211,0.115,0.074,north-northwest,6.6,No
2023/07/04,07:00,0.146,0.135,0.212,0.200,0.209,0.115,0.075,north-northwest,6.7,No
2023/07/04,07:10,0.147,0.134,0.209,0.202,0.209,0.115,0.074,north-northwest,5.1,No
2023/07/04,07:20,0.145,0.134,0.209,0.201,0.210,0.115,0.075,north,4.2,No
2023/07/04,07:30,0.145,0.134,0.211,0.201,0.210,0.115,0.074,north,4.6,No
2023/07/04,07:40,0.147,0.134,0.213,0.200,0.208,0.116,0.074,north,5.9,No
2023/07/04,07:50,0.145,0.136,0.210,0.203,0.208,0.115,0.076,north,6.4,Yes
2023/07/04,08:00,0.145,0.133,0.210,0.202,0.211,0.115,0.075,north-northeast,4.1,Yes
2023/07/04,08:10,0.146,0.134,0.212,0.201,0.210,0.115,0.074,north-northeast,5.1,Yes
2023/07/04,08:20,0.147,0.135,0.212,0.201,0.208,0.115,0.076,northeast,3.9,Yes
2023/07/04,08:30,0.145,0.134,0.209,0.202,0.210,0.116,0.076,north-northeast,3.8,Yes
2023/07/04,08:40,0.147,0.134,0.211,0.202,0.212,0.114,0.075,north-northeast,4.0,Yes
2023/07/04,08:50,0.146,0.135,0.213,0.201,0.208,0.116,0.074,north-northeast,2.8,No
2023/07/04,09:00,0.144,0.135,0.210,0.203,0.210,0.116,0.075,north-northeast,4.7,No
2023/07/04,09:10,0.147,0.134,0.211,0.202,0.212,0.114,0.074,north-northeast,5.5,Yes
2023/07/04,09:20,0.147,0.135,0.213,0.200,0.209,0.116,0.074,north-northeast,4.8,Yes
2023/07/04,09:30,0.145,0.134,0.210,0.203,0.208,0.116,0.074,north-northeast,5.1,Yes
2023/07/04,09:40,0.146,0.133,0.210,0.203,0.210,0.116,0.074,northeast,4.3,Yes
2023/07/04,09:50,0.146,0.135,0.213,0.201,0.210,0.115,0.074,north-northeast,4.5,No
2023/07/04,10:00,0.144,0.135,0.211,0.200,0.207,0.115,0.075,northeast,3.5,No
2023/07/04,10:10,0.145,0.134,0.210,0.203,0.209,0.116,0.074,north-northeast,5.6,No
2023/07/04,10:20,0.146,0.134,0.209,0.203,0.211,0.115,0.075,north-northeast,4.8,No
2023/07/04,10:30,0.145,0.135,0.213,0.202,0.210,0.114,0.075,north-northeast,5.2,No
2023/07/04,10:40,0.144,0.135,0.213,0.201,0.208,0.116,0.075,north-northeast,5.3,No
2023/07/04,10:50,0.145,0.134,0.211,0.200,0.207,0.115,0.074,northeast,5.5,No
2023/07/04,11:00,0.147,0.134,0.211,0.200,0.207,0.115,0.074,north-northeast,5.0,No
2023/07/04,11:10,0.144,0.134,0.211,0.200,0.207,0.115,0.074,north,5.4,No
2023/07/04,11:20,0.144,0.134,0.210,0.201,0.208,0.115,0.074,north-northeast,6.5,No
2023/07/04,11:30,0.145,0.134,0.210,0.201,0.209,0.115,0.074,north-northeast,5.9,No
2023/07/04,11:40,0.144,0.134,0.211,0.201,0.208,0.114,0.074,north,6.3,No
2023/07/04,11:50,0.144,0.134,0.211,0.201,0.208,0.115,0.074,north-northeast,6.8,No
2023/07/04,12:00,0.145,0.134,0.211,0.200,0.209,0.115,0.074,north-northeast,7.0,No
2023/07/04,12:10,0.147,0.134,0.211,0.200,0.209,0.115,0.075,north-northeast,6.9,No
2023/07/04,12:20,0.146,0.134,0.212,0.202,0.209,0.116,0.075,north-northeast,6.0,No
2023/07/04,12:30,0.145,0.135,0.211,0.201,0.209,0.116,0.074,north,4.8,No
2023/07/04,12:40,0.145,0.134,0.211,0.201,0.209,0.116,0.074,north,5.1,No
2023/07/04,12:50,0.145,0.134,0.211,0.201,0.209,0.116,0.074,north-northeast,5.5,No
2023/07/04,13:00,0.144,0.134,0.211,0.201,0.209,0.116,0.075,north-northeast,6.1,No
2023/07/04,13:10,0.146,0.134,0.212,0.202,0.209,0.116,0.075,north-northeast,5.1,No
2023/07/04,13:20,0.144,0.135,0.212,0.202,0.210,0.115,0.074,north,5.1,No
2023/07/04,13:30,0.145,0.135,0.212,0.202,0.210,0.115,0.074,north,7.3,No
2023/07/04,13:40,0.145,0.135,0.211,0.202,0.209,0.116,0.075,north,6.1,No
2023/07/04,13:50,0.145,0.134,0.211,0.201,0.209,0.116,0.074,north,5.5,No
2023/07/04,14:00,0.147,0.134,0.211,0.202,0.209,0.115,0.075,north,5.9,No
2023/07/04,14:10,0.148,0.134,0.213,0.202,0.209,0.114,0.074,north,5.5,No
2023/07/04,14:20,0.146,0.134,0.213,0.202,0.209,0.115,0.074,north,7.1,No
2023/07/04,14:30,0.146,0.134,0.212,0.201,0.211,0.115,0.075,north,6.1,No
2023/07/04,14:40,0.145,0.134,0.211,0.203,0.209,0.115,0.074,north,4.9,No
2023/07/04,14:50,0.146,0.134,0.211,0.202,0.209,0.115,0.074,north-northeast,6.2,No
2023/07/04,15:00,0.144,0.134,0.212,0.203,0.209,0.116,0.074,north,5.9,No
2023/07/04,15:10,0.145,0.134,0.211,0.203,0.210,0.116,0.074,north,6.0,No
2023/07/04,15:20,0.145,0.135,0.212,0.202,0.210,0.115,0.074,north,5.5,No
2023/07/04,15:30,0.145,0.135,0.211,0.202,0.211,0.116,0.074,north,6.0,No
2023/07/04,15:40,0.145,0.135,0.212,0.202,0.210,0.116,0.074,north,5.2,No
2023/07/04,15:50,0.146,0.133,0.211,0.202,0.210,0.115,0.075,north-northeast,5.5,No
2023/07/04,16:00,0.146,0.134,0.211,0.202,0.209,0.115,0.074,northeast,3.4,No
2023/07/04,16:10,0.147,0.136,0.211,0.201,0.209,0.115,0.075,northeast,3.7,No
2023/07/04,16:20,0.145,0.135,0.211,0.204,0.210,0.115,0.075,north-northeast,4.8,No
2023/07/04,16:30,0.145,0.135,0.215,0.204,0.209,0.115,0.075,north-northeast,5.2,No
2023/07/04,16:40,0.144,0.136,0.212,0.202,0.208,0.115,0.074,north-northeast,5.5,No
2023/07/04,16:50,0.146,0.136,0.212,0.203,0.208,0.115,0.075,north-northeast,5.6,No
2023/07/04,17:00,0.146,0.135,0.213,0.205,0.209,0.115,0.074,north-northeast,5.5,No
2023/07/04,17:10,0.147,0.135,0.213,0.204,0.208,0.116,0.074,north,4.3,No
2023/07/04,17:20,0.144,0.135,0.211,0.201,0.209,0.116,0.074,north,5.1,No
2023/07/04,17:30,0.147,0.135,0.213,0.205,0.213,0.116,0.075,north,4.4,No
2023/07/04,17:40,0.147,0.135,0.213,0.204,0.211,0.115,0.074,north,4.1,No
2023/07/04,17:50,0.145,0.136,0.211,0.202,0.210,0.116,0.074,north,3.9,No
2023/07/04,18:00,0.146,0.135,0.213,0.205,0.213,0.116,0.074,north,3.3,No
2023/07/04,18:10,0.147,0.135,0.213,0.204,0.211,0.116,0.075,north-northeast,4.7,No
2023/07/04,18:20,0.145,0.136,0.212,0.203,0.210,0.115,0.075,north,3.8,No
2023/07/04,18:30,0.146,0.135,0.213,0.204,0.210,0.115,0.075,north,4.0,No
2023/07/04,18:40,0.147,0.135,0.213,0.205,0.211,0.116,0.074,north-northeast,4.2,No
2023/07/04,18:50,0.145,0.136,0.211,0.202,0.210,0.116,0.074,north,3.8,No
2023/07/04,19:00,0.147,0.134,0.213,0.203,0.209,0.115,0.074,north,4.4,No
2023/07/04,19:10,0.147,0.135,0.214,0.205,0.212,0.116,0.075,north,3.6,No
2023/07/04,19:20,0.146,0.135,0.211,0.203,0.210,0.116,0.075,north,3.6,No
2023/07/04,19:30,0.147,0.134,0.214,0.205,0.211,0.115,0.075,north,4.1,No
2023/07/04,19:40,0.147,0.136,0.212,0.204,0.212,0.116,0.074,north,4.0,No
2023/07/04,19:50,0.145,0.135,0.213,0.203,0.209,0.115,0.074,north,3.3,No
2023/07/04,20:00,0.145,0.134,0.213,0.203,0.210,0.115,0.075,north,3.3,No
2023/07/04,20:10,0.146,0.136,0.211,0.202,0.211,0.117,0.074,north-northwest,3.2,No
2023/07/04,20:20,0.146,0.134,0.214,0.204,0.209,0.115,0.074,north,3.3,No
2023/07/04,20:30,0.146,0.135,0.214,0.205,0.211,0.116,0.074,north,3.4,No
2023/07/04,20:40,0.146,0.134,0.212,0.202,0.211,0.117,0.073,north,2.9,No
2023/07/04,20:50,0.145,0.135,0.214,0.204,0.210,0.116,0.075,north,2.8,No
2023/07/04,21:00,0.147,0.135,0.212,0.204,0.212,0.116,0.075,north,3.2,No
2023/07/04,21:10,0.146,0.137,0.214,0.202,0.211,0.116,0.074,north-northwest,2.8,No
2023/07/04,21:20,0.144,0.135,0.212,0.205,0.208,0.115,0.075,north-northwest,2.0,No
2023/07/04,21:30,0.146,0.135,0.213,0.203,0.212,0.116,0.075,north-northeast,3.6,No
2023/07/04,21:40,0.146,0.134,0.213,0.204,0.210,0.116,0.074,north-northeast,3.3,No
2023/07/04,21:50,0.145,0.134,0.212,0.204,0.209,0.116,0.074,east-northeast,1.3,No
2023/07/04,22:00,0.147,0.135,0.213,0.203,0.211,0.116,0.074,east-northeast,1.4,No
2023/07/04,22:10,0.147,0.135,0.213,0.205,0.210,0.117,0.074,northeast,2.9,No
2023/07/04,22:20,0.145,0.136,0.212,0.204,0.210,0.115,0.075,east-northeast,1.4,No
2023/07/04,22:30,0.147,0.134,0.212,0.203,0.211,0.116,0.074,east-northeast,1.6,No
2023/07/04,22:40,0.145,0.136,0.212,0.204,0.210,0.116,0.075,-,CALM,No
2023/07/04,22:50,0.146,0.135,0.214,0.202,0.212,0.115,0.074,north-northeast,0.9,No
2023/07/04,23:00,0.147,0.135,0.211,0.205,0.210,0.116,0.075,north,0.6,No
2023/07/04,23:10,0.146,0.135,0.214,0.203,0.210,0.116,0.075,northeast,0.7,No
2023/07/04,23:20,0.147,0.136,0.214,0.204,0.212,0.116,0.075,-,CALM,No
2023/07/04,23:30,0.146,0.136,0.213,0.203,0.209,0.116,0.074,north-northeast,0.6,No
2023/07/04,23:40,0.146,0.135,0.213,0.202,0.212,0.115,0.074,north,0.6,No
2023/07/04,23:50,0.147,0.136,0.212,0.205,0.209,0.116,0.075,-,CALM,No
